Regional Weather Roundup
Issued by NWS

Home | Current Version | Previous Version | Text Only | Print | Product List | Glossary Off
Versions: 1 2 3 4 5 6 7 8 9 10 11 12 13 14 15 16 17 18 19 20 21 22 23 24 25 26 27 28 29 30 31 32 33 34 35 36 37 38 39 40 41 42 43 44 45 46 47 48 49 50

000
ASUS43 KDMX 241508
RWRIA

WEATHER ROUNDUP FOR IOWA
NATIONAL WEATHER SERVICE DES MOINES IA
1000 AM CDT SUN JUL 24 2016

NOTE: "FAIR" INDICATES FEW OR NO CLOUDS BELOW 12,000 FEET WITH NO
SIGNIFICANT WEATHER AND/OR OBSTRUCTIONS TO VISIBILITY.

* - THESE STATIONS ARE NOT NWS STATIONS...THUS NOT UNDER NWS
QUALITY CONTROL.  THEY ALSO DO NOT REPORT WEATHER SUCH
AS PRECIPITATION OR FOG.

IAZ001>003-012>014-020>022-031>034-043>046-241600-
   NORTHWEST IOWA

CITY           SKY/WX    TMP DP  RH WIND       PRES   REMARKS
CARROLL *      SUNNY     81  66  61 NE14      29.94R HX  83
CHEROKEE *     SUNNY     79  61  54 N12       29.96R HX  80
LE MARS *      SUNNY     81  66  61 N16       29.99R HX  83
SHELDON *      SUNNY     79  70  73 N8        29.97S HX  81
SIOUX CITY     SUNNY     85  60  42 N8        29.98R HX  85
SPENCER        SUNNY     78  63  59 N13       29.97R HX  80
STORM LAKE *   SUNNY     79  63  57 N13       29.98R HX  80
$$

IAZ055>058-069>071-079>083-090>094-241600-
   SOUTHWEST IOWA

CITY           SKY/WX    TMP DP  RH WIND       PRES   REMARKS
ATLANTIC *     MOSUNNY   82  70  65 NE10G16   29.94R HX  86
CLARINDA *       N/A     82  79  89 MISG      29.94S HX  93
COUNCIL BLFS * MOSUNNY   81  70  69 N7G14     29.97R HX  84
CRESTON *      CLOUDY    81  77  89 N8        29.95R HX  88
HARLAN  *      SUNNY     81  68  65 N9        29.99R HX  83
LAMONI         CLOUDY    83  76  79 W8        29.91R HX  91
RED OAK *      MOSUNNY   84  77  79 NE10      29.94R HX  94
SHENANDOAH *   SUNNY     84  79  84 NE8       29.94R HX  96
$$

IAZ047>049-059>061-072>074-084-241600-
   CENTRAL IOWA

CITY           SKY/WX    TMP DP  RH WIND       PRES   REMARKS
AMES           SUNNY     83  74  74 N13G23    29.91R HX  89
ANKENY *         N/A    N/A N/A N/A MISG        N/A
BOONE *        SUNNY     81  73  78 N12G18    29.91R HX  85
CHARITON *       N/A    N/A N/A N/A MISG        N/A
DES MOINES     CLOUDY    84  77  79 N10       29.89R HX  94
GRINNELL*      SUNNY     85  75  72 W12       29.89R HX  93
KNOXVILLE *    SUNNY     84  75  74 W14       29.87S HX  92
MARSHALLTOWN   CLOUDY    81  77  88 NW15      29.88R HX  88
NEWTON *       PTSUNNY   84  79  84 W9G16     29.88R HX  96
PELLA *        SUNNY     86  75  69 NW9       29.89R HX  95
PERRY *          N/A     82  75  81 N8        29.92R HX  88
$$

IAZ004>006-015-016-023>025-035-036-241600-
   NORTH CENTRAL IOWA

CITY           SKY/WX    TMP DP  RH WIND       PRES   REMARKS
ALGONA *       SUNNY     79  68  69 N10G16    29.93S HX  81
ESTHERVILLE    SUNNY     76  65  68 NW13      29.96R
FORT DODGE *   SUNNY     79  70  73 N8        29.93S HX  81
MASON CITY     SUNNY     80  69  69 N16       29.92R HX  83
FOREST CITY *    N/A     77  66  69 NW13G18   29.91S
IOWA FALLS *     N/A     81  72  75 NW16      29.92R HX  85
$$

IAZ007>011-017>019-026>030-037>042-050>054-066-241600-
   NORTHEAST IOWA

CITY           SKY/WX    TMP DP  RH WIND       PRES   REMARKS
CEDAR RAPIDS   SUNNY     86  80  82 W10       29.85R HX 101
CHARLES CITY * PTSUNNY   81  77  89 NW12G17   29.89R HX  88
CLINTON *      CLOUDY    85  79  82 SW10      29.86S HX  98
DECORAH *      CLOUDY    79  79 100 VRB5      29.85R HX  83
DUBUQUE        SUNNY     84  78  82 SW12      29.86R HX  95
MONTICELLO *   SUNNY     86  79  79 W10       29.85R HX  99
OELWEIN *      CLOUDY    79  77  94 NW12      29.88R HX  83
WATERLOO       CLOUDY    80  75  84 NW7       29.86R HX  85
$$

IAZ064-065-067-068-078-241600-
   EAST CENTRAL IOWA

CITY           SKY/WX    TMP DP  RH WIND       PRES   REMARKS
DAVENPORT      CLOUDY    86  77  74 SW10G21   29.86S HX  97
IOWA CITY      MOSUNNY   86  77  74 W9        29.86S HX  97
MT. PLEASANT * MOSUNNY   90  79  70 SW12G17   29.87S HX 105
MUSCATINE *    CLOUDY    88  77  70 SW10G18   29.85F HX 100
QUAD CITIES    SUNNY     89  78  70 SW9       29.85S HX 103
$$

IAZ062-063-075>077-085>089-095>099-241600-
   SOUTHEAST IOWA

CITY           SKY/WX    TMP DP  RH WIND       PRES   REMARKS
BURLINGTON     SUNNY     87  80  79 SW7       29.87F HX 103
FAIRFIELD *    MOSUNNY   86  75  70 SW10      29.87S HX  95
KEOKUK *       SUNNY     88  79  74 SW12      29.87F HX 102
CENTERVILLE *    N/A     84  75  74 SW9G16    29.91R HX  92
OTTUMWA        CLOUDY    82  75  79 SW8       29.87R HX  89
WASHINGTON *   PTSUNNY   84  79  84 SW7       29.88R HX  96
$$

ABBREVIATIONS USED IN REMARKS
   TC - TEMPERATURES IN CELSIUS
  WCI - WIND CHILL INDEX
   HX - HEAT INDEX
  VSB - VISIBILITY
$$





USA.gov is the U.S. government's official web portal to all federal, state and local government web resources and services.